PBO Station Position Time Series. Reference Frame : NAM14
Format Version,1.1.0
4-character ID,P693
Station name,MSH_NWDomeWA2004
Begin Date, 2004-10-15
End Date, 2019-10-07
Release Date, 2019-10-08
Reference position, 46.2103214478 North Latitude, -122.2023487465 East Longitude, 2112.98139 meters elevation,
Date, North (mm), East (mm), Vertical (mm), North Std. Deviation (mm), East Std. Deviation (mm),              Vertical Std. Deviation (mm), Quality,
2004-10-15,0.00, 0.00, 0.00, 2.46, 1.68, 7.53, repro,
2004-10-16,0.67, 0.65, -0.08, 2.37, 1.63, 7.23, repro,
2004-10-17,6.22, 4.80, 5.75, 2.34, 1.61, 7.32, repro,
2004-10-18,3.40, 6.07, 9.00, 2.26, 1.59, 7.14, repro,
2004-10-19,10.42, 5.25, 14.41, 2.38, 1.64, 7.31, repro,
2004-10-20,10.70, 8.06, 9.32, 2.33, 1.62, 7.19, repro,
2004-10-21,4.22, 7.55, -1.52, 2.32, 1.60, 7.24, repro,
2004-10-22,1.56, 8.29, -11.69, 2.37, 1.62, 7.35, repro,
2004-10-23,1.10, 7.90, -1.53, 2.40, 1.63, 7.35, repro,
2004-10-24,-2.64, 16.08, 22.35, 2.27, 1.59, 7.14, repro,
2004-10-25,-5.85, 11.48, 18.01, 2.28, 1.59, 7.14, repro,
2004-10-26,-0.31, -3.63, 15.01, 2.46, 1.67, 7.61, repro,
2004-10-27,-7.95, -0.87, 9.58, 2.43, 1.68, 7.62, repro,
2004-10-28,0.11, 0.53, -0.15, 2.92, 1.89, 8.65, repro,
2004-10-29,-3.79, 2.68, -4.02, 2.34, 1.62, 7.21, repro,
2004-10-30,-0.45, 1.87, 5.63, 2.33, 1.64, 7.29, repro,
2004-10-31,-8.79, 6.14, 6.66, 2.32, 1.61, 7.18, repro,
2004-11-01,-3.70, 3.57, -9.39, 2.31, 1.64, 7.30, repro,
2004-11-02,1.02, 1.98, -11.14, 2.33, 1.62, 7.23, repro,
2004-11-03,-3.25, 0.95, -5.34, 2.36, 1.66, 7.46, repro,
2004-11-04,-1.00, 0.37, -6.78, 2.30, 1.62, 7.14, repro,
2004-11-05,-2.13, 1.17, -7.92, 2.36, 1.70, 7.48, repro,
2004-11-06,-0.31, 0.60, -2.29, 2.31, 1.64, 7.28, repro,
2004-11-07,-1.32, 0.57, -10.54, 2.48, 1.65, 7.42, repro,
2004-11-08,-1.37, 0.93, -9.67, 2.67, 1.89, 8.73, repro,
2004-11-09,-0.59, 0.32, -2.43, 2.38, 1.66, 7.35, repro,
2004-11-10,-1.42, 1.23, -11.31, 2.40, 1.66, 7.61, repro,
2004-11-11,-0.41, 1.45, -18.20, 2.43, 1.75, 7.63, repro,
2004-11-12,0.95, 0.37, -12.06, 2.35, 1.64, 7.38, repro,
2004-11-13,0.23, -0.51, -12.73, 2.47, 1.69, 7.62, repro,
2004-11-14,-0.40, 0.09, -14.26, 2.35, 1.64, 7.28, repro,
2004-11-15,6.20, 5.47, -16.66, 2.27, 1.62, 7.20, repro,
2004-11-16,2.64, 8.88, -13.18, 2.31, 1.62, 7.20, repro,
2004-11-17,2.33, 9.86, -16.48, 2.32, 1.61, 7.13, repro,
2004-11-18,3.12, 17.09, 1.34, 2.29, 1.62, 7.27, repro,
2004-11-19,4.63, 25.65, 15.30, 2.34, 1.68, 7.48, repro,
2004-11-20,1.30, 13.97, 6.87, 2.29, 1.64, 7.28, repro,
2004-11-21,-0.78, 2.79, -9.63, 2.55, 1.81, 7.97, repro,
2004-11-22,-8.36, 2.77, 7.41, 2.27, 1.64, 7.32, repro,
2004-11-23,-20.46, 4.28, 30.93, 2.35, 1.63, 7.22, repro,
2004-11-24,-4.23, 3.72, -9.18, 2.41, 1.67, 7.52, repro,
2004-11-25,0.04, 12.39, -1.20, 2.48, 1.78, 7.99, repro,
2004-11-26,-5.43, 18.05, 2.83, 2.35, 1.69, 7.54, repro,
2004-11-27,-4.72, 15.52, 12.23, 2.29, 1.64, 7.27, repro,
2004-11-28,-2.83, 16.77, 5.16, 2.20, 1.60, 7.08, repro,
2004-11-29,-3.91, 8.73, 0.10, 2.23, 1.59, 7.08, repro,
2004-11-30,1.84, 5.35, -10.63, 2.21, 1.59, 7.10, repro,
2004-12-01,-5.70, 13.83, -4.20, 2.32, 1.61, 7.25, repro,
2004-12-02,-3.78, 9.39, 0.99, 2.37, 1.63, 7.28, repro,
2004-12-03,-5.66, 6.26, 2.97, 2.29, 1.64, 7.34, repro,
2004-12-04,1.63, 0.09, -5.74, 2.44, 1.70, 7.51, repro,
2004-12-05,3.41, 0.38, -3.50, 2.23, 1.59, 7.14, repro,
2004-12-06,1.75, 4.44, 2.33, 2.33, 1.66, 7.39, repro,
2004-12-07,5.88, 6.77, 10.46, 2.41, 1.69, 7.53, repro,
2004-12-08,9.75, 7.12, 6.43, 2.29, 1.61, 7.22, repro,
2004-12-09,7.28, 9.08, 10.04, 2.26, 1.59, 7.09, repro,
2004-12-10,2.82, -1.86, -2.24, 2.31, 1.66, 7.41, repro,
2004-12-11,3.41, -0.24, -13.36, 2.33, 1.65, 7.44, repro,
2004-12-12,1.02, -2.36, -15.69, 2.37, 1.65, 7.37, repro,
2004-12-13,5.65, -0.43, -12.33, 2.39, 1.66, 7.40, repro,
2004-12-14,8.18, 9.43, -11.53, 2.32, 1.62, 7.19, repro,
2004-12-15,8.88, 15.89, -10.84, 2.41, 1.66, 7.42, repro,
2004-12-16,5.75, 3.17, -22.59, 2.41, 1.64, 7.54, repro,
2004-12-17,1.86, -1.93, -20.41, 2.42, 1.74, 7.87, repro,
2004-12-18,1.74, -1.37, -30.75, 2.26, 1.59, 7.15, repro,
2004-12-19,-1.72, 0.77, -9.83, 2.22, 1.56, 6.98, repro,
2004-12-20,-13.76, 15.12, -4.43, 2.25, 1.56, 7.00, repro,
2004-12-21,-15.60, 13.92, 5.99, 2.26, 1.59, 7.23, repro,
2004-12-22,-16.83, 10.59, -9.65, 2.35, 1.65, 7.57, repro,
2004-12-23,-8.83, 1.73, -3.85, 2.35, 1.63, 7.40, repro,
2004-12-24,1.31, -1.57, -13.80, 2.34, 1.66, 7.46, repro,
2004-12-25,6.74, 6.53, -2.35, 2.24, 1.59, 7.08, repro,
2004-12-26,15.16, 12.58, 1.53, 2.31, 1.61, 7.21, repro,
2004-12-27,13.73, 14.50, -3.48, 2.34, 1.60, 7.17, repro,
2004-12-28,5.36, 5.03, -6.36, 2.45, 1.66, 7.49, repro,
2004-12-29,1.40, -1.33, -6.09, 2.41, 1.64, 7.33, repro,
2004-12-30,0.94, -1.17, -9.94, 2.42, 1.66, 7.35, repro,
2004-12-31,2.12, 0.36, -12.60, 2.52, 1.72, 7.66, repro,
2005-01-01,5.66, 3.28, -15.55, 2.39, 1.63, 7.26, repro,
2005-01-02,6.46, 11.17, -7.85, 2.49, 1.65, 7.53, repro,
2005-01-03,3.04, 3.06, -8.87, 2.45, 1.69, 7.48, repro,
2005-01-04,4.17, -1.10, -12.44, 2.48, 1.64, 7.47, repro,
2005-01-05,2.71, -1.64, -18.23, 2.42, 1.66, 7.44, repro,
2005-01-06,5.15, 0.40, -13.11, 2.32, 1.64, 7.28, repro,
2005-01-07,18.33, 8.16, -9.93, 2.43, 1.67, 7.44, repro,
2005-01-08,17.34, 8.69, -9.32, 2.39, 1.66, 7.37, repro,
2005-01-09,15.78, 9.05, -12.34, 2.33, 1.61, 7.22, repro,
2005-01-10,16.22, 8.43, -17.42, 2.46, 1.70, 7.55, repro,
2005-01-11,12.70, 6.91, -7.51, 2.30, 1.64, 7.25, repro,
2005-01-12,3.24, 11.02, 4.96, 2.33, 1.65, 7.34, repro,
2005-01-13,-0.07, 19.93, 19.73, 2.34, 1.67, 7.36, repro,
2005-01-14,0.15, 13.50, 5.74, 2.41, 1.69, 7.50, repro,
2005-01-15,-4.02, 9.21, -2.44, 2.60, 1.97, 8.24, repro,
2005-01-16,17.68, 12.35, -10.69, 2.48, 1.68, 7.31, repro,
2005-01-17,15.72, 8.50, -9.67, 2.26, 1.59, 7.08, repro,
2005-01-18,6.55, -0.50, -17.94, 2.78, 1.88, 8.36, repro,
2005-01-19,5.41, -1.37, -14.50, 2.39, 1.65, 7.29, repro,
2005-01-20,3.29, 0.36, -19.35, 2.32, 1.64, 7.30, repro,
2005-01-21,4.16, 0.24, -15.08, 2.37, 1.73, 7.66, repro,
2005-01-22,3.64, 0.24, -8.38, 2.34, 1.68, 7.39, repro,
2005-01-23,1.63, -0.06, -12.56, 2.37, 1.64, 7.25, repro,
2005-01-24,2.80, -1.18, -15.79, 2.31, 1.63, 7.21, repro,
2005-01-25,1.91, -0.31, -9.56, 2.48, 1.80, 7.93, repro,
2005-01-26,8.84, 0.36, -18.12, 2.33, 1.69, 7.40, repro,
2005-01-27,1.55, 0.31, -10.18, 2.24, 1.60, 7.13, repro,
2005-01-28,3.24, 0.33, -17.39, 2.28, 1.65, 7.29, repro,
2005-01-29,4.60, 4.83, -14.44, 2.30, 1.61, 7.16, repro,
2005-01-30,5.42, 12.08, -15.39, 2.25, 1.62, 7.16, repro,
2005-01-31,3.22, 2.80, -18.40, 2.35, 1.65, 7.27, repro,
2005-02-01,0.17, 1.59, -16.15, 2.34, 1.64, 7.48, repro,
2005-02-02,2.24, -0.91, -22.17, 2.25, 1.57, 7.03, repro,
2005-02-03,3.56, -1.27, -15.35, 2.36, 1.62, 7.40, repro,
2005-02-04,3.93, 2.94, -18.80, 2.35, 1.63, 7.40, repro,
2005-02-05,0.52, 18.08, -2.07, 2.23, 1.56, 7.02, repro,
2005-02-06,-0.92, 18.74, -8.40, 2.22, 1.56, 7.01, repro,
2005-02-07,-7.80, 18.88, 2.18, 2.23, 1.56, 6.99, repro,
2005-02-08,-9.00, 6.16, -2.33, 2.36, 1.66, 7.46, repro,
2005-02-09,-2.31, -0.45, -4.10, 2.28, 1.60, 7.21, repro,
2005-02-10,0.07, -0.83, -13.67, 2.32, 1.61, 7.32, repro,
2005-02-11,3.38, -1.38, -7.85, 2.38, 1.61, 7.31, repro,
2005-02-12,3.04, -0.24, -6.50, 2.33, 1.62, 7.27, repro,
2005-02-13,2.88, 4.11, -5.72, 2.30, 1.57, 7.11, repro,
2005-02-14,4.30, 9.27, -1.92, 2.30, 1.58, 7.07, repro,
2005-02-15,3.22, 4.87, -9.63, 2.30, 1.57, 7.06, repro,
2005-02-16,3.62, -1.95, -18.99, 2.25, 1.55, 7.03, repro,
2005-02-17,3.24, -1.56, -15.36, 2.33, 1.61, 7.27, repro,
2005-02-18,1.98, -2.21, -14.29, 2.30, 1.58, 7.15, repro,
2005-02-19,2.75, -1.95, -10.60, 2.30, 1.59, 7.11, repro,
2005-02-20,2.49, -2.29, -9.03, 2.27, 1.59, 7.12, repro,
2005-02-21,2.89, -1.39, -14.10, 2.24, 1.56, 7.01, repro,
2005-02-22,3.28, -0.72, -10.59, 2.42, 1.65, 7.38, repro,
2005-02-23,0.17, -0.65, -18.13, 2.37, 1.59, 7.21, repro,
2005-02-24,2.02, -1.75, -12.53, 2.39, 1.58, 7.36, repro,
2005-02-25,2.86, -0.60, -13.80, 2.35, 1.59, 7.29, repro,
2005-02-26,1.90, -1.86, -7.17, 2.30, 1.57, 7.12, repro,
2005-02-27,5.50, -0.93, -19.51, 2.28, 1.56, 7.11, repro,
2005-02-28,6.53, -0.19, -11.10, 2.36, 1.62, 7.31, repro,
2005-03-01,3.41, 4.59, -13.66, 2.31, 1.57, 7.12, repro,
2005-03-02,4.60, 5.38, -15.05, 2.39, 1.58, 7.16, repro,
2005-03-03,2.91, 5.37, -14.42, 2.53, 1.69, 7.52, repro,
2005-03-04,1.35, -1.50, -9.40, 2.34, 1.63, 7.27, repro,
2005-03-05,2.31, -0.88, -12.22, 2.42, 1.65, 7.36, repro,
2005-03-06,3.42, -0.46, -14.67, 2.46, 1.62, 7.49, repro,
2005-03-07,3.86, 0.16, -6.76, 2.33, 1.58, 7.11, repro,
2005-03-08,3.40, 0.07, -10.40, 2.29, 1.58, 7.07, repro,
2005-03-09,4.31, -0.71, -11.76, 2.41, 1.65, 7.46, repro,
2005-03-10,2.19, -1.28, -13.70, 2.68, 1.76, 8.02, repro,
2005-03-11,3.47, -0.22, -8.64, 2.55, 1.68, 7.66, repro,
2005-03-12,3.12, -1.38, -8.61, 2.38, 1.60, 7.20, repro,
2005-03-13,2.90, -0.43, -17.63, 2.30, 1.57, 7.06, repro,
2005-03-14,2.67, -0.17, -13.23, 2.46, 1.62, 7.27, repro,
2005-03-15,1.84, -0.99, -11.22, 2.49, 1.64, 7.50, repro,
2005-03-16,3.04, -0.06, -9.89, 2.41, 1.62, 7.31, repro,
2005-03-17,0.55, 4.78, -6.35, 2.38, 1.67, 7.42, repro,
2005-03-18,0.73, 3.27, -8.85, 2.34, 1.58, 7.15, repro,
2005-03-19,5.75, 3.44, -3.06, 2.64, 1.74, 7.91, repro,
2005-03-20,14.05, 11.88, -12.45, 2.32, 1.57, 7.13, repro,
2005-03-21,9.17, 11.53, -11.40, 2.33, 1.58, 7.16, repro,
2005-03-22,7.52, 11.11, -15.15, 2.32, 1.57, 7.17, repro,
2005-03-23,6.68, 9.64, -3.73, 2.45, 1.65, 7.44, repro,
2005-03-24,5.59, 7.87, 0.26, 2.31, 1.58, 7.15, repro,
2005-03-25,6.11, 5.12, -10.63, 2.46, 1.62, 7.40, repro,
2005-03-26,6.69, 4.45, -19.53, 2.32, 1.58, 7.17, repro,
2005-03-27,10.41, 8.50, -11.31, 2.34, 1.58, 7.13, repro,
2005-03-28,11.25, 10.13, -4.38, 2.36, 1.60, 7.24, repro,
2005-03-29,12.17, 7.07, 7.17, 2.39, 1.63, 7.36, repro,
2005-03-30,13.21, 13.44, 12.76, 2.38, 1.61, 7.31, repro,
2005-03-31,4.04, 11.17, -4.06, 2.43, 1.63, 7.45, repro,
2005-04-01,2.31, 0.96, -11.60, 2.56, 1.71, 7.68, repro,
2005-04-02,1.21, 1.40, -15.16, 2.39, 1.59, 7.35, repro,
2005-04-03,4.05, 0.99, -9.99, 2.46, 1.63, 7.67, repro,
2005-04-04,0.69, 0.66, -12.22, 2.43, 1.63, 7.69, repro,
2005-04-05,1.30, 1.30, -8.56, 2.55, 1.63, 7.73, repro,
2005-04-06,2.11, 0.54, -14.55, 2.39, 1.62, 7.42, repro,
2005-04-07,2.20, -1.58, -4.15, 2.40, 1.60, 7.31, repro,
2005-04-08,1.59, 0.02, -8.42, 2.46, 1.69, 7.78, repro,
2005-04-09,1.14, -1.25, -5.92, 2.45, 1.65, 7.72, repro,
2005-04-10,1.34, -0.31, -10.74, 2.45, 1.60, 7.48, repro,
2005-04-11,3.06, 1.54, -9.45, 2.51, 1.67, 7.86, repro,
2005-04-12,3.76, 1.00, -11.52, 2.41, 1.61, 7.47, repro,
2005-04-13,0.29, 0.39, -19.79, 2.47, 1.60, 7.51, repro,
2005-04-14,2.12, 0.51, -14.75, 2.49, 1.65, 7.50, repro,
2005-04-15,1.87, 2.16, -11.40, 2.41, 1.60, 7.32, repro,
2005-04-16,7.51, 5.61, -16.33, 2.34, 1.57, 7.15, repro,
2005-04-17,1.09, 4.41, -10.17, 2.41, 1.60, 7.24, repro,
2005-04-18,6.14, 3.09, -13.11, 2.39, 1.61, 7.30, repro,
2005-04-19,0.91, -0.80, -15.31, 2.33, 1.59, 7.18, repro,
2005-04-20,0.79, -0.09, -15.54, 2.40, 1.59, 7.36, repro,
2005-04-21,-0.12, 0.41, -19.66, 2.47, 1.65, 7.62, repro,
2005-04-22,1.45, -1.01, -10.41, 2.35, 1.58, 7.15, repro,
2005-04-23,3.76, -0.45, -9.49, 2.41, 1.62, 7.33, repro,
2005-04-24,0.90, 1.52, -9.56, 2.40, 1.60, 7.45, repro,
2005-04-25,0.84, -0.13, -16.13, 2.44, 1.60, 7.30, repro,
2005-04-26,-0.58, 3.84, -21.09, 2.42, 1.60, 7.45, repro,
2005-04-27,3.60, 0.33, -14.93, 2.40, 1.63, 7.51, repro,
2005-04-28,1.85, 0.65, -14.91, 2.41, 1.66, 7.45, repro,
2005-04-29,-0.87, 1.97, -23.54, 2.45, 1.62, 7.36, repro,
2005-04-30,0.05, 2.06, -17.47, 2.38, 1.60, 7.41, repro,
2005-05-01,0.53, 1.22, -15.01, 2.40, 1.60, 7.44, repro,
2005-05-02,3.29, 4.25, -13.71, 2.32, 1.57, 7.10, repro,
2005-05-03,1.46, 2.03, -12.12, 2.47, 1.67, 7.65, repro,
2005-05-04,3.68, 3.79, -14.99, 2.34, 1.57, 7.16, repro,
2005-05-05,0.78, 1.50, -6.52, 2.40, 1.58, 7.18, repro,
2005-05-06,2.28, 0.46, -11.82, 2.32, 1.57, 7.12, repro,
2005-05-07,1.37, 1.16, -10.64, 2.42, 1.62, 7.39, repro,
2005-05-08,3.47, 1.71, -13.74, 2.36, 1.61, 7.26, repro,
2005-05-09,2.98, 4.01, -18.05, 2.46, 1.61, 7.40, repro,
2005-05-10,0.35, 1.94, -15.89, 2.41, 1.65, 7.55, repro,
2005-05-11,2.31, 1.19, -16.96, 2.52, 1.68, 7.76, repro,
2005-05-12,2.42, 0.48, -16.89, 2.41, 1.67, 7.53, repro,
2005-05-13,1.08, 1.46, -18.90, 2.48, 1.71, 7.69, repro,
2005-05-14,2.09, 2.04, -14.82, 2.41, 1.68, 7.57, repro,
2005-05-15,3.04, 3.27, -13.64, 2.43, 1.66, 7.60, repro,
2005-05-16,0.77, 3.91, -14.26, 2.41, 1.64, 7.34, repro,
2005-05-17,1.25, 4.08, -16.05, 2.50, 1.68, 7.60, repro,
2005-05-18,3.45, 3.16, -10.87, 2.53, 1.69, 7.64, repro,
2005-05-19,5.27, 6.74, -8.61, 2.39, 1.63, 7.37, repro,
2005-05-20,6.77, 8.24, -15.34, 2.38, 1.63, 7.34, repro,
2005-05-21,3.56, 4.52, -14.81, 2.36, 1.63, 7.31, repro,
2005-05-22,8.36, 10.02, -26.56, 2.41, 1.63, 7.35, repro,
2005-05-23,5.17, 12.98, -29.41, 2.45, 1.66, 7.62, repro,
2005-05-24,3.04, 3.01, -31.59, 2.46, 1.66, 7.60, repro,
2005-05-25,0.58, 1.60, -16.53, 2.84, 1.98, 8.96, repro,
2005-05-26,1.60, 2.01, -19.68, 3.10, 2.08, 9.53, repro,
2005-05-27,-0.30, 1.19, -19.10, 2.34, 1.62, 7.30, repro,
2005-05-28,-0.84, 1.54, -16.66, 2.41, 1.65, 7.51, repro,
2005-05-29,-0.70, 1.07, -14.07, 2.36, 1.63, 7.40, repro,
2005-05-30,-0.93, 1.46, -18.47, 2.45, 1.67, 7.52, repro,
2005-05-31,1.07, 3.72, -15.51, 2.52, 1.68, 7.76, repro,
2005-06-01,-3.72, 10.01, -12.40, 2.32, 1.57, 7.10, repro,
2005-06-02,-4.22, 3.58, -19.13, 2.31, 1.58, 7.13, repro,
2005-06-03,-0.25, 2.51, -16.50, 2.38, 1.60, 7.26, repro,
2005-06-04,0.70, 2.79, -13.75, 2.48, 1.64, 7.58, repro,
2005-06-05,-0.27, 3.57, -10.20, 2.46, 1.66, 7.46, repro,
2005-06-06,1.54, 3.94, -9.10, 2.33, 1.57, 7.13, repro,
2005-06-07,-0.58, 3.44, -13.83, 2.35, 1.61, 7.26, repro,
2005-06-08,-3.30, 2.59, -17.39, 2.40, 1.61, 7.22, repro,
2005-06-09,-0.39, 1.82, -14.30, 2.37, 1.58, 7.25, repro,
2005-06-10,-1.92, 3.41, -17.03, 2.46, 1.64, 7.58, repro,
2005-06-11,-1.60, 4.77, -11.61, 2.50, 1.68, 7.60, repro,
2005-06-12,-1.37, 6.45, -14.75, 2.46, 1.66, 7.46, repro,
2005-06-13,1.44, 2.87, -22.05, 2.40, 1.62, 7.29, repro,
2005-06-14,0.05, 2.84, -20.11, 2.38, 1.62, 7.30, repro,
2005-06-15,-0.10, 1.72, -15.67, 2.44, 1.62, 7.36, repro,
2005-06-16,2.37, 1.79, -8.98, 2.45, 1.60, 7.29, repro,
2005-06-17,-2.97, 4.44, -9.49, 2.41, 1.60, 7.23, repro,
2005-06-18,0.66, 1.47, -12.46, 6.64, 4.00, 18.89, repro,
2005-06-19,-2.50, 2.18, -16.76, 2.44, 1.60, 7.42, repro,
2005-06-20,-0.50, 2.36, -17.43, 2.42, 1.61, 7.28, repro,
2005-06-21,-0.86, -0.42, -15.16, 2.41, 1.60, 7.28, repro,
2005-06-22,-0.07, 1.83, -21.54, 2.43, 1.60, 7.25, repro,
2005-06-23,-1.07, 2.67, -19.77, 2.53, 1.72, 7.84, repro,
2005-06-24,-0.51, 1.96, -16.80, 2.30, 1.57, 7.11, repro,
2005-06-25,-0.29, 1.63, -14.34, 2.40, 1.66, 7.54, repro,
2005-06-26,-0.59, 1.32, -13.15, 2.41, 1.60, 7.39, repro,
2005-06-27,-1.60, 1.97, -18.23, 2.40, 1.60, 7.23, repro,
2005-06-28,-1.15, 1.65, -16.40, 2.45, 1.62, 7.35, repro,
2005-06-29,-1.34, 0.80, -15.16, 2.27, 1.56, 7.03, repro,
2005-06-30,-0.63, 0.59, -10.73, 2.68, 1.88, 8.47, repro,
2005-07-01,0.10, 1.27, -11.52, 2.32, 1.58, 7.15, repro,
2005-07-02,-0.18, 0.84, -12.33, 2.40, 1.61, 7.23, repro,
2005-07-03,1.02, 2.89, -19.40, 4.06, 2.64, 12.29, repro,
2005-07-04,-2.55, 2.21, -17.24, 2.43, 1.61, 7.27, repro,
2005-07-05,-2.93, 2.05, -18.87, 2.35, 1.59, 7.15, repro,
2005-07-06,0.58, 3.49, -18.65, 2.29, 1.56, 7.10, repro,
2005-07-07,-2.09, 0.69, -12.06, 2.49, 1.69, 7.64, repro,
2005-07-08,-0.80, 1.94, -17.65, 2.37, 1.60, 7.19, repro,
2005-07-09,-0.57, 1.01, -10.49, 2.29, 1.58, 7.11, repro,
2005-07-10,-0.76, 2.55, -9.72, 2.49, 1.71, 7.50, repro,
2005-07-11,0.33, 0.23, -8.82, 2.30, 1.58, 7.14, repro,
2005-07-12,-0.96, 0.93, -14.90, 2.30, 1.58, 7.11, repro,
2005-07-13,-1.36, 1.46, -16.47, 2.37, 1.60, 7.22, repro,
2005-07-14,-1.15, 1.11, -12.33, 2.31, 1.61, 7.21, repro,
2005-07-15,-2.12, 1.70, -10.62, 2.43, 1.71, 7.45, repro,
2005-07-16,3.07, 0.16, -8.83, 2.36, 1.60, 7.17, repro,
2005-07-17,-0.33, 1.04, -12.55, 2.39, 1.61, 7.30, repro,
2005-07-18,-1.71, 0.83, -12.42, 2.32, 1.58, 7.19, repro,
2005-07-19,-1.54, 1.29, -11.30, 2.35, 1.60, 7.18, repro,
2005-07-20,-1.25, 1.17, -15.37, 2.52, 1.65, 7.44, repro,
2005-07-21,-1.61, 1.37, -14.59, 2.36, 1.59, 7.11, repro,
2005-07-22,-0.67, 1.43, -8.10, 2.29, 1.58, 7.10, repro,
2005-07-23,0.29, 2.30, -12.57, 2.31, 1.58, 7.15, repro,
2005-07-24,-1.43, 1.43, -12.08, 2.32, 1.61, 7.26, repro,
2005-07-25,1.25, 0.97, -12.87, 2.33, 1.61, 7.30, repro,
2005-07-26,-1.74, -0.39, -14.69, 2.36, 1.66, 7.48, repro,
2005-07-27,1.29, 0.25, -10.64, 2.37, 1.67, 7.43, repro,
2005-07-28,-0.64, 1.34, -12.51, 2.40, 1.68, 7.53, repro,
2005-07-29,0.89, 1.74, -17.64, 2.34, 1.62, 7.37, repro,
2005-07-30,0.34, 0.78, -9.86, 2.32, 1.61, 7.28, repro,
2005-07-31,1.39, 1.33, -11.18, 2.35, 1.62, 7.36, repro,
2005-08-01,-0.60, 1.61, -13.53, 2.42, 1.66, 7.37, repro,
2005-08-02,-1.06, 1.91, -15.25, 2.34, 1.61, 7.26, repro,
2005-08-03,1.04, 2.25, -8.87, 2.37, 1.61, 7.23, repro,
2005-08-04,0.13, 1.38, -10.83, 2.39, 1.61, 7.24, repro,
2005-08-05,-0.06, 1.58, -12.49, 2.41, 1.61, 7.28, repro,
2005-08-06,0.70, 1.83, -10.75, 2.39, 1.60, 7.22, repro,
2005-08-07,0.05, 0.67, -16.07, 2.44, 1.61, 7.31, repro,
2005-08-08,-0.16, 1.56, -12.32, 2.30, 1.58, 7.09, repro,
2005-08-09,-0.75, 0.95, -11.51, 2.30, 1.58, 7.14, repro,
2005-08-10,-0.09, 1.65, -14.86, 2.36, 1.62, 7.34, repro,
2005-08-11,-0.25, 1.77, -9.30, 2.37, 1.64, 7.36, repro,
2005-08-12,-1.94, 0.96, -10.05, 2.59, 1.73, 7.67, repro,
2005-08-13,1.67, 0.79, -9.34, 2.43, 1.61, 7.35, repro,
2005-08-14,0.55, 0.56, -5.88, 2.40, 1.65, 7.33, repro,
2005-08-15,-0.57, -1.65, -3.46, 2.38, 1.63, 7.36, repro,
2005-08-16,-0.10, 1.04, -11.18, 2.45, 1.66, 7.41, repro,
2005-08-17,-0.44, 3.43, -12.01, 2.44, 1.69, 7.48, repro,
2005-08-18,-1.42, 1.56, -12.17, 2.43, 1.66, 7.38, repro,
2005-08-19,0.55, 0.66, -3.10, 2.35, 1.58, 7.15, repro,
2005-08-20,1.22, 1.24, -7.21, 2.44, 1.66, 7.39, repro,
2005-08-21,0.73, 3.03, -8.94, 2.37, 1.61, 7.25, repro,
2005-08-22,-0.31, 2.88, -12.01, 2.31, 1.58, 7.14, repro,
2005-08-23,0.55, 0.87, -2.57, 2.37, 1.60, 7.21, repro,
2005-08-24,2.03, 0.52, -9.20, 2.37, 1.58, 7.20, repro,
2005-08-25,1.90, 0.11, -1.53, 2.40, 1.63, 7.48, repro,
2005-08-26,-0.37, 1.17, -7.09, 2.39, 1.60, 7.28, repro,
2005-08-27,0.39, 0.37, -10.41, 2.38, 1.60, 7.42, repro,
2005-08-28,1.65, 2.01, -8.79, 2.37, 1.61, 7.24, repro,
2005-08-29,0.44, 3.06, -3.43, 2.30, 1.57, 7.11, repro,
2005-08-30,1.07, 1.30, -8.27, 2.43, 1.64, 7.36, repro,
2005-08-31,0.19, 2.00, -8.14, 2.35, 1.58, 7.30, repro,
2005-09-01,0.53, 0.33, -4.65, 2.31, 1.58, 7.22, repro,
2005-09-02,0.34, 1.51, -7.07, 2.59, 1.78, 8.05, repro,
2005-09-03,-0.20, 1.72, -6.06, 2.36, 1.60, 7.16, repro,
2005-09-04,-0.31, -0.21, -0.94, 2.37, 1.58, 7.12, repro,
2005-09-05,-0.29, 1.30, -6.84, 2.36, 1.59, 7.17, repro,
2005-09-06,-1.75, -2.49, -6.63, 2.37, 1.60, 7.23, repro,
2005-09-07,-0.63, 0.93, -9.09, 2.46, 1.63, 7.35, repro,
2005-09-08,-0.13, 1.25, -8.10, 2.42, 1.62, 7.28, repro,
2005-09-09,0.17, 1.63, -1.20, 2.42, 1.61, 7.30, repro,
2005-09-10,0.25, 2.62, -13.93, 2.35, 1.58, 7.16, repro,
2005-09-11,-0.23, 1.42, -8.03, 2.46, 1.60, 7.47, repro,
2005-09-12,-0.37, 1.02, -9.09, 2.47, 1.63, 7.35, repro,
2005-09-13,0.99, 1.48, -2.43, 2.57, 1.72, 7.70, repro,
2005-09-14,-0.61, 1.06, -5.61, 2.39, 1.62, 7.28, repro,
2005-09-15,-0.34, 2.06, -5.33, 2.47, 1.65, 7.46, repro,
2005-09-16,-1.54, 1.71, -2.19, 2.40, 1.63, 7.35, repro,
2005-09-17,0.26, 1.75, -4.96, 2.36, 1.60, 7.24, repro,
2005-09-18,-0.95, 0.95, -5.34, 2.30, 1.57, 7.16, repro,
2005-09-19,0.39, 1.72, -6.00, 2.33, 1.58, 7.26, repro,
2005-09-20,-0.54, 0.91, -6.28, 2.34, 1.59, 7.14, repro,
2005-09-21,0.44, 1.46, -7.83, 2.43, 1.62, 7.46, repro,
2005-09-22,-0.48, 1.70, -10.08, 2.37, 1.59, 7.25, repro,
2005-09-23,0.49, 1.33, -12.94, 2.41, 1.63, 7.47, repro,
2005-09-24,-0.75, 1.45, -6.97, 2.31, 1.62, 7.27, repro,
2005-09-25,-0.71, 1.17, -4.69, 2.34, 1.61, 7.27, repro,
2005-09-26,-1.75, 2.40, -2.91, 2.33, 1.61, 7.28, repro,
2005-09-27,0.69, 1.51, -4.31, 2.41, 1.65, 7.50, repro,
2005-09-28,-0.25, 1.98, 4.31, 3.40, 2.11, 9.87, repro,
2005-09-29,0.93, 2.87, -5.26, 2.42, 1.61, 7.44, repro,
2005-09-30,2.05, 1.29, 1.17, 2.29, 1.58, 7.11, repro,
2005-10-01,-0.36, 3.13, -0.92, 2.39, 1.58, 7.22, repro,
2005-10-02,-0.54, 4.45, -14.83, 2.35, 1.62, 7.32, repro,
2005-10-03,-0.57, 4.29, -7.24, 2.43, 1.64, 7.37, repro,
2005-10-04,-0.88, 1.34, -15.63, 2.45, 1.61, 7.38, repro,
2005-10-05,-1.21, 1.73, -12.03, 2.51, 1.65, 7.60, repro,
2005-10-06,0.92, 3.45, -8.79, 2.40, 1.59, 7.22, repro,
2005-10-07,-1.09, 2.23, 0.05, 2.40, 1.60, 7.22, repro,
2005-10-08,-1.74, 2.08, -2.20, 2.46, 1.61, 7.29, repro,
2005-10-09,-0.74, 2.01, -6.75, 2.31, 1.57, 7.13, repro,
2005-10-10,-0.30, 2.84, -10.01, 2.39, 1.60, 7.20, repro,
2005-10-11,-1.23, 2.28, -8.36, 2.51, 1.67, 7.45, repro,
2005-10-12,-0.33, 3.72, -11.44, 2.35, 1.61, 7.27, repro,
2005-10-13,0.49, 1.56, -0.19, 2.34, 1.61, 7.31, repro,
2005-10-14,3.06, 2.33, -5.82, 2.40, 1.59, 7.21, repro,
2005-10-15,3.31, 8.14, -10.42, 2.46, 1.62, 7.42, repro,
2005-10-16,-0.65, 3.05, -2.66, 2.56, 1.68, 7.69, repro,
2005-10-17,-0.91, 5.31, -9.96, 2.29, 1.57, 7.08, repro,
2005-10-18,-1.26, 2.81, -3.11, 2.56, 1.76, 7.87, repro,
2005-10-19,-0.48, 4.37, -6.83, 2.37, 1.61, 7.31, repro,
2005-10-20,-0.30, 2.32, -11.56, 2.39, 1.60, 7.28, repro,
2005-10-22,-2.27, 4.56, -8.18, 2.43, 1.60, 7.39, repro,
2005-10-23,1.93, 3.07, -6.02, 2.31, 1.57, 7.15, repro,
2005-10-24,1.97, 3.11, -9.87, 2.51, 1.67, 7.60, repro,
2005-10-25,5.36, 1.88, -2.80, 2.43, 1.63, 7.36, repro,
2005-10-26,0.08, 3.63, -8.92, 2.42, 1.69, 7.56, repro,
2005-10-27,-0.23, 2.67, -9.57, 2.32, 1.60, 7.29, repro,
2005-10-28,1.85, 3.42, -6.25, 2.30, 1.57, 7.09, repro,
2005-10-29,1.46, 6.37, -8.68, 2.37, 1.62, 7.35, repro,
2005-10-30,2.59, 8.23, -13.25, 2.39, 1.59, 7.19, repro,
2005-10-31,3.65, 10.42, -7.79, 2.44, 1.66, 7.47, repro,
2005-11-01,0.24, 2.93, -13.24, 2.49, 1.72, 7.56, repro,
2005-11-02,2.15, 5.79, -8.37, 2.44, 1.73, 7.66, repro,
2005-11-03,4.35, 6.16, -8.19, 2.38, 1.64, 7.34, repro,
2005-11-04,2.77, 8.16, -6.22, 2.60, 1.74, 7.77, repro,
2005-11-05,3.08, 12.26, -4.91, 2.44, 1.68, 7.50, repro,
2005-11-06,24.24, 45.73, -0.19, 2.52, 1.75, 7.74, repro,
2005-11-07,39.07, 69.94, -16.93, 2.44, 1.70, 7.57, repro,
2005-11-08,29.39, 47.84, -13.12, 2.53, 1.86, 7.77, repro,
2005-11-09,14.84, 32.53, -1.00, 2.55, 1.83, 8.05, repro,
2005-11-10,-2.16, 5.36, -11.77, 2.55, 1.74, 7.94, repro,
2005-11-11,-4.58, 12.82, -3.82, 2.52, 1.70, 7.84, repro,
2005-11-12,-3.14, 16.89, -6.72, 2.33, 1.64, 7.22, repro,
2005-11-13,-0.55, 22.70, -9.93, 2.44, 1.71, 7.68, repro,
2005-11-14,1.89, 36.47, -11.35, 2.52, 1.72, 7.85, repro,
2005-11-15,2.85, 29.59, 4.43, 2.46, 1.67, 7.82, repro,
2005-11-16,-0.87, 6.20, -23.46, 2.34, 1.57, 7.20, repro,
2005-11-17,-2.16, 5.27, -20.11, 2.30, 1.57, 7.17, repro,
2005-11-18,-2.47, 5.08, -17.70, 2.30, 1.57, 7.17, repro,
2005-11-19,-3.13, 5.04, -16.58, 2.30, 1.56, 7.11, repro,
2005-11-20,-2.91, 5.67, -18.22, 2.45, 1.65, 7.51, repro,
2005-11-21,-3.15, 4.04, -16.82, 2.65, 1.69, 7.81, repro,
2005-11-22,-0.37, 4.49, -12.69, 2.58, 1.75, 7.94, repro,
2005-11-23,-1.48, 3.80, -12.01, 2.35, 1.62, 7.37, repro,
2005-11-24,-0.62, 4.78, -15.17, 2.31, 1.57, 7.16, repro,
2005-11-25,-1.37, 4.92, -8.81, 2.35, 1.59, 7.26, repro,
2005-11-26,-7.50, 14.30, 3.28, 2.44, 1.67, 7.64, repro,
2005-11-27,-11.01, 15.10, -5.73, 2.32, 1.59, 7.22, repro,
2005-11-28,-9.28, 12.54, -2.16, 2.34, 1.63, 7.43, repro,
2005-11-29,-6.85, 9.03, 7.19, 2.40, 1.63, 7.41, repro,
2005-11-30,-7.24, 16.37, -0.66, 2.42, 1.62, 7.32, repro,
2005-12-01,-6.82, 16.30, 2.07, 2.36, 1.59, 7.28, repro,
2005-12-02,-3.00, 16.85, 8.87, 2.33, 1.59, 7.26, repro,
2005-12-03,-3.70, 21.10, 19.93, 2.36, 1.58, 7.37, repro,
2005-12-04,-5.13, 24.23, 23.28, 2.29, 1.59, 7.22, repro,
2005-12-05,-2.01, 23.78, 23.55, 2.33, 1.56, 7.14, repro,
2005-12-06,-3.93, 22.90, 23.23, 2.33, 1.59, 7.21, repro,
2005-12-07,-8.09, 18.93, 15.78, 2.35, 1.62, 7.35, repro,